SCP
0 0 0 0 0 0 0 0 0 0 0 0 0 0 0 0 0 0 0 0 0 0 0 0 0 0 0 0 1 1 0 0 0 0 0 0 0 0 0 0 0 0 0 0
0 0 0 0 0 0 0 0 0 0 0 0 0 0 0 0 0 0 0 0 0 0 0 0 0 0 0 0 0 1 0 0 0 0 0 0 0 0 0 0 0 0 0 0
0 0 0 0 0 0 0 0 0 0 0 0 0 0 -0 0 0 0 0 0 0 0 0 0 0 0 0 0 0 1 1 0 0 0 0 0 0 0 0 0 0 0 0 0
0 0 0 0 0 0 0 0 0 0 0 0 0 -0 -0 0 0 0 0 0 0 0 0 0 0 0 0 0 0 1 1 0 0 0 0 0 0 0 0 0 0 0 0 0
0 0 0 0 0 0 0 0 0 0 0 0 0 0 -0 -0 0 0 0 0 0 0 0 0 0 0 0 0 0 1 1 1 0 0 0 0 0 0 0 0 0 0 0 0
0 0 0 0 0 0 0 0 0 0 0 0 0 0 0 0 0 0 0 0 0 0 0 0 0 0 0 0 0 1 1 1 0 0 0 0 0 0 0 0 0 0 0 0
0 0 0 0 0 0 0 0 0 0 0 0 0 0 0 0 0 0 0 0 0 0 0 0 0 0 0 0 0 1 1 1 0 0 0 0 0 0 0 0 0 0 0 0
0 0 0 0 0 0 0 0 0 0 0 0 0 0 0 0 0 0 0 0 0 0 0 0 0 0 0 0 0 0 1 0 0 0 0 0 0 0 0 0 0 0 0 0
0 0 0 0 0 0 0 0 0 0 0 0 0 0 0 0 0 0 0 0 0 0 0 0 0 0 0 0 0 0 0 0 0 0 0 0 0 0 0 0 0 0 0 0
0 0 0 0 0 0 0 0 0 0 0 0 0 0 0 0 0 0 0 0 0 0 0 0 0 0 0 0 0 0 0 0 0 0 0 0 0 0 0 0 0 0 0 0
0 0 0 0 0 0 0 0 0 0 0 0 0 0 0 0 0 0 0 0 0 0 0 0 0 0 0 0 0 0 0 0 0 0 0 0 0 0 0 0 0 0 0 0
0 0 0 0 0 0 0 0 0 0 0 0 0 0 0 0 0 0 0 0 0 0 0 0 0 0 0 0 0 0 0 0 0 0 0 0 0 0 0 0 0 0 0 0
0 0 0 0 0 0 0 0 0 0 0 0 0 0 0 0 0 0 0 0 0 0 0 0 0 0 0 0 0 0 0 0 0 0 0 0 0 0 0 0 0 0 0 0
0 0 0 0 0 0 0 0 0 0 0 0 0 0 0 0 0 0 0 0 0 0 0 0 0 0 0 0 0 0 0 0 0 0 0 0 0 0 0 0 0 0 0 0
0 0 0 0 0 0 0 0 0 0 0 0 0 0 0 0 -0 -0 0 0 0 0 0 0 0 0 0 0 0 0 0 0 0 0 0 0 0 0 0 0 0 0 0 0
0 0 0 0 0 0 0 0 0 0 0 0 0 0 0 -0 -0 -0 0 0 0 0 0 0 0 0 0 0 0 0 0 0 0 0 0 0 0 0 0 0 0 0 0 0
0 0 0 0 0 0 0 0 0 0 0 -0 0 0 0 -0 -0 -0 -0 0 0 0 0 0 0 0 0 0 0 0 0 0 0 0 0 0 0 0 0 0 0 0 0 0
0 0 0 0 0 0 0 0 0 0 0 -0 0 0 0 -0 -0 -0 -0 0 0 0 0 0 0 0 0 0 0 0 0 0 0 0 0 0 0 0 0 0 0 0 0 0
0 0 0 0 0 0 0 0 0 0 0 0 0 0 0 0 0 -0 -0 0 0 0 0 0 0 0 0 0 0 0 0 0 0 0 0 0 0 0 0 0 0 0 0 0
0 0 0 0 0 0 0 0 0 0 0 0 0 0 0 0 0 0 -0 -0 0 0 0 0 0 0 0 0 0 0 0 0 0 0 0 0 0 0 0 0 0 0 0 0
0 0 0 0 0 0 0 0 0 0 0 0 0 0 0 0 0 0 -0 0 0 0 0 0 0 0 0 0 0 0 0 0 0 0 0 0 0 0 0 0 0 0 0 0
0 0 0 0 0 0 0 0 0 0 0 0 0 0 0 0 0 0 0 0 0 0 0 0 0 0 0 0 0 0 0 0 0 0 0 0 0 0 0 0 0 0 0 0
0 0 0 0 0 0 0 0 0 0 0 0 0 0 0 0 0 0 0 0 0 0 0 0 0 0 0 0 0 0 0 0 0 0 0 0 0 0 0 0 0 0 0 0
0 0 0 0 0 0 0 0 0 0 0 0 0 0 0 0 0 0 0 0 0 0 0 0 0 0 0 0 0 0 0 0 0 0 0 0 0 0 0 0 0 0 0 0
0 0 0 0 0 0 0 0 0 0 0 0 0 0 0 0 0 0 0 0 0 0 0 0 0 0 0 0 0 0 0 0 0 0 0 0 0 0 0 0 0 0 0 0
0 0 0 0 0 0 0 0 0 0 0 0 0 0 0 0 0 0 -0 0 0 0 0 0 0 0 0 0 0 0 0 0 0 0 0 0 0 0 0 0 0 0 0 0
Wind_Speed
4 5 10 13 15 13 9 9 11 10 7 8 14 16 13 11 10 11 11 11 12 14 15 14 16 16 16 17 19 20 19 18 16 13 12 12 12 11 10 9 11 12 11 11
3 11 13 11 11 13 14 14 14 10 8 9 11 16 13 13 14 13 13 13 13 13 12 13 14 16 17 19 20 21 21 20 19 15 13 10 9 7 7 7 10 12 12 12
11 8 7 11 12 13 15 14 12 10 8 7 8 13 13 12 13 14 13 13 12 14 14 14 15 16 17 19 21 20 22 21 20 16 10 8 6 5 6 9 10 12 13 13
9 9 10 11 12 12 14 10 11 9 7 6 6 9 9 11 13 15 15 14 14 13 14 13 14 16 18 20 20 21 22 22 20 18 15 17 14 12 12 11 9 10 12 13
7 5 7 12 13 11 8 5 9 10 8 8 7 8 9 7 13 16 16 15 14 13 13 13 14 16 17 19 19 19 20 21 20 20 19 19 14 11 6 7 10 10 10 12
9 7 6 7 7 8 6 4 6 5 4 11 12 11 10 9 14 12 13 14 14 13 13 13 13 13 15 17 17 18 19 20 21 21 20 20 18 13 12 11 12 11 8 9
6 7 7 5 4 5 5 4 2 3 6 10 8 11 12 9 10 13 13 13 13 12 11 11 11 12 13 15 17 17 20 20 21 22 21 21 20 18 17 15 14 12 9 9
4 7 5 4 6 5 7 8 7 6 6 4 5 12 9 8 9 9 10 9 9 9 9 10 11 12 14 16 18 18 20 20 21 22 21 19 18 14 13 13 12 13 12 11
4 7 4 5 4 5 6 7 6 3 4 4 7 7 8 4 6 7 7 7 9 9 9 9 9 11 13 15 18 19 20 19 20 21 20 19 18 16 15 14 12 11 9 9
4 7 6 5 4 6 6 4 3 5 5 6 7 7 6 4 5 5 5 7 8 9 8 9 8 9 10 13 16 17 18 19 19 20 19 16 18 17 15 13 14 13 12 10
4 5 5 3 5 5 4 4 4 4 4 4 5 7 6 6 5 5 7 7 8 8 7 7 7 7 8 10 13 15 16 16 16 18 18 17 17 16 14 14 15 13 11 12
4 4 5 7 6 3 5 5 4 4 5 4 4 9 4 4 4 5 6 6 6 6 6 5 5 4 6 8 10 13 14 14 15 16 15 16 16 15 15 15 14 13 13 12
3 3 2 5 3 1 3 4 4 3 3 5 6 10 4 6 7 7 6 7 6 6 5 4 3 3 5 6 8 11 12 13 12 13 14 15 15 15 16 15 14 13 13 12
4 4 6 7 6 4 6 7 6 5 5 6 10 14 13 12 12 11 9 7 7 6 4 3 3 3 4 5 7 8 10 11 11 12 13 15 15 15 15 14 13 13 13 12
2 5 6 9 9 9 11 12 10 11 10 10 11 14 14 13 12 11 9 7 7 6 5 4 3 3 2 3 5 6 8 9 11 11 12 13 13 12 12 12 13 12 12 12
3 5 4 8 10 10 14 14 13 14 13 13 15 17 12 10 8 8 6 5 6 6 6 5 5 3 3 3 4 5 6 8 10 11 11 10 11 11 12 12 12 12 12 11
4 4 3 6 6 7 11 11 12 11 9 9 12 12 9 9 9 8 5 4 5 7 7 6 5 5 4 4 5 6 6 7 9 10 9 10 11 11 11 11 12 12 12 11
7 5 4 4 2 9 9 4 7 10 11 8 9 9 9 11 11 7 3 3 5 6 6 6 6 5 5 3 2 4 5 7 8 9 9 9 10 10 11 11 12 12 10 11
9 7 4 4 5 9 7 4 5 7 8 5 7 9 9 9 7 4 4 5 6 6 6 6 6 5 4 2 2 4 5 7 8 9 10 10 10 10 11 12 11 10 10 9
7 7 5 5 5 8 6 5 5 4 7 4 5 8 7 5 4 6 8 6 6 6 5 5 4 3 2 2 2 5 6 7 8 9 9 9 10 11 11 11 10 8 9 9
4 5 7 8 8 9 7 5 0 3 6 4 3 5 5 4 6 8 8 7 6 6 7 5 3 3 3 2 3 5 6 7 7 7 7 8 9 10 10 9 8 10 9 9
7 5 6 6 7 10 3 1 3 6 5 4 4 5 5 7 7 7 7 7 7 7 7 5 3 3 3 2 4 5 6 5 6 7 8 8 8 8 8 10 9 10 11 11
7 8 6 8 9 5 3 5 6 5 5 5 5 6 6 7 8 8 8 8 7 7 7 5 4 3 3 3 4 5 4 5 7 8 8 8 8 8 9 11 11 10 10 9
5 4 4 6 8 8 8 6 6 6 8 7 7 6 5 7 8 9 8 8 7 7 6 5 4 3 3 3 3 4 5 6 7 9 9 9 9 9 8 8 9 9 9 9
6 4 5 8 9 8 8 7 8 8 9 9 7 7 7 8 9 9 9 8 8 7 6 5 5 5 4 3 3 4 6 7 8 8 9 9 8 9 8 7 6 8 7 10
6 7 7 9 8 7 8 7 7 8 9 9 9 10 9 8 9 9 9 8 7 7 6 5 5 5 4 3 4 6 7 8 9 9 9 8 8 7 7 7 6 6 7 11
Wind_Direction
204 206 222 220 219 238 250 251 256 258 265 257 252 257 258 255 251 243 237 229 225 223 218 207 201 195 190 187 184 184 182 180 176 177 178 179 184 184 184 185 182 180 179 177
248 239 241 242 239 245 249 255 260 269 257 259 264 266 260 248 243 241 236 234 228 228 225 214 205 197 192 190 188 186 185 182 182 185 183 182 175 177 179 180 183 183 181 180
229 245 243 241 240 244 248 244 251 261 281 265 276 272 253 250 244 244 239 233 229 223 222 216 207 201 195 193 191 189 188 186 186 181 170 156 150 150 171 185 187 188 185 183
249 251 256 256 247 237 252 242 251 258 257 250 217 268 249 233 241 242 239 234 230 228 223 216 209 202 198 197 194 192 189 187 186 179 176 175 180 185 190 186 185 185 186 185
251 251 250 248 245 236 246 247 247 246 245 255 227 252 267 219 233 236 234 233 233 228 224 218 210 205 201 195 193 193 190 189 186 184 183 184 189 191 172 169 176 183 188 188
254 255 244 244 247 235 247 257 268 249 225 245 226 223 262 217 224 231 233 232 231 227 224 222 214 204 201 195 191 190 189 190 188 187 187 189 190 182 172 177 182 186 188 190
286 260 240 225 260 246 222 190 232 230 217 239 203 213 245 231 226 225 230 233 233 230 227 226 220 207 200 195 192 190 190 191 190 190 191 193 192 187 187 185 187 186 187 192
269 277 236 213 217 226 217 193 200 215 219 250 203 227 244 231 232 230 232 238 238 234 229 226 222 211 202 197 192 190 192 192 190 191 194 194 192 191 193 190 189 192 196 197
238 262 277 268 244 204 204 214 211 234 262 256 240 259 281 252 251 247 248 252 252 243 236 230 228 217 204 198 194 193 192 193 192 193 193 193 192 193 193 190 189 193 194 188
208 264 270 273 261 227 212 190 179 204 217 237 247 244 242 238 251 264 261 260 263 259 247 238 230 222 210 200 196 193 192 194 193 192 193 193 193 194 192 188 192 194 191 184
206 239 279 282 227 221 210 201 214 221 223 219 249 255 215 208 226 248 258 268 266 262 256 248 241 225 212 198 193 192 193 193 193 193 191 190 191 191 188 190 193 193 189 186
211 219 253 251 252 245 209 201 196 218 240 229 249 267 268 243 266 277 281 286 287 282 270 265 257 231 209 197 194 191 191 192 193 192 189 190 188 186 188 191 191 188 188 188
207 205 279 312 307 273 228 215 217 240 242 227 230 262 283 316 310 300 297 303 304 300 299 303 291 241 211 201 194 192 189 189 189 186 187 186 186 185 188 190 188 185 185 184
247 205 211 228 243 242 247 249 236 221 238 248 240 264 289 307 310 307 305 300 301 301 300 296 292 269 225 199 193 192 191 186 182 182 186 187 187 187 188 186 184 184 182 181
206 237 239 252 259 259 258 255 244 232 230 240 256 264 277 292 294 294 295 303 310 314 313 299 284 282 250 207 194 192 190 185 180 180 185 189 185 181 180 180 181 179 179 181
207 234 245 264 255 260 264 259 250 247 244 245 258 267 276 287 292 287 289 298 305 308 307 302 291 272 247 218 202 193 187 183 178 181 185 181 176 176 177 178 176 175 176 175
215 207 233 264 280 288 261 239 236 241 239 240 252 267 298 298 294 282 267 275 294 302 302 299 292 272 250 229 208 196 188 176 176 178 176 174 173 174 175 172 171 174 175 172
206 202 220 259 274 245 248 231 232 243 250 251 264 285 291 287 289 273 263 289 295 298 294 292 288 287 279 253 219 192 174 172 173 172 173 171 170 171 168 169 173 174 171 172
205 198 209 228 246 266 274 257 227 232 251 259 271 289 300 304 302 285 311 305 284 285 286 280 273 269 267 256 205 169 167 171 171 175 175 172 168 165 166 170 171 166 164 166
196 193 206 221 240 250 259 277 267 227 257 270 273 287 296 319 301 287 309 312 302 302 295 287 281 281 256 252 187 169 171 174 181 181 176 169 165 165 168 169 163 157 158 161
183 198 213 225 241 260 268 288 44 187 254 285 273 281 286 267 258 284 298 298 289 291 293 290 269 261 251 228 183 179 180 187 182 167 159 159 162 163 161 157 155 152 151 150
192 197 208 206 229 250 256 161 200 240 261 274 273 275 282 281 289 296 294 292 292 298 300 296 282 273 270 224 189 189 198 183 155 153 154 155 155 153 150 149 150 150 149 148
206 200 201 207 226 246 236 226 241 248 269 274 272 272 275 284 293 299 298 293 290 289 289 282 271 263 260 233 200 196 196 158 151 150 151 149 149 150 152 152 153 152 152 152
246 206 211 249 259 264 268 268 269 267 266 269 269 271 274 279 286 290 292 292 290 284 285 280 272 256 253 250 226 201 175 160 155 155 152 150 150 149 149 151 155 156 158 156
226 211 227 250 266 281 268 261 267 274 277 278 276 269 271 276 281 281 283 285 281 278 280 269 257 247 247 243 223 185 171 164 161 158 152 150 149 149 148 147 155 158 164 165
214 214 229 248 252 255 269 275 279 284 285 281 280 281 277 268 272 276 275 277 277 273 278 276 268 254 247 226 214 187 178 171 163 160 157 154 150 147 145 138 118 103 133 144